Find Starlink 3054

NORAD ID: 49167 Int'l Des: 2021-082 Owner: SPXS Country: US Constellation: starlink operational
LEOCIRCULAR

Live Position

Loading 3D Globe...

About Starlink 3054

Description loading...

Upcoming Passes

Passes for default location (London). Set your location on the main map for personalized predictions.

Altitude History

Loading altitude history...

Two-Line Element Set

1 49167U 21082AP 26103.97991105 -.00000416 00000-0 -27026-4 0 9997
2 49167 70.0003 205.4667 0003163 271.4669 88.6127 14.98335183252463
Epoch: Apr 13, 2026 • Age: 21 hours

Current Status

Altitude 589.8 km
Velocity 7.57 km/s
Sub-Earth Point -51.93°S, 31.36°E
Launch Date Sep 14, 2021
Age 4.5 years
Type internet

Technical Details

Classification Payload
Mass 297.00 kg
Dry Mass 275.00 kg
Total Mass 297.00 kg
Length 0.20 m
Diameter 2.80 m
Span 9.00 m
Shape Box + pan
Manufacturer SPXS
Bus Type Starlink
Phase Status In Orbit
Owner/State SPXS/US

Most Searched